Regional Weather Roundup
Issued by NWS

Home | Current Version | Previous Version | Graphics & Text | Print | Product List | Glossary On
Versions: 1 2 3 4 5 6 7 8 9 10 11 12 13 14 15 16 17 18 19 20 21 22 23 24 25 26 27 28 29 30 31 32 33 34 35 36 37 38 39 40 41 42 43 44 45 46 47 48 49 50
000
ASUS43 KDTX 261310
RWRMI
MICHIGAN HOURLY REGIONAL WEATHER ROUNDUP
NATIONAL WEATHER SERVICE DETROIT/PONTIAC MI
900 AM EDT MON JUN 26 2017

NOTE: "FAIR" INDICATES FEW OR NO CLOUDS BELOW 12,000 FEET WITH NO
SIGNIFICANT WEATHER AND/OR OBSTRUCTION TO VISIBILITY.

MIZ047>049-052>055-059>063-066>070-074>076-081>083-261400-
SOUTHEAST LOWER MICHIGAN

CITY           SKY/WX    TMP DP  RH WIND       PRES   REMARKS
ADRIAN         MOSUNNY   61  53  75 NW10      30.08S
ALMA           MOSUNNY   58  49  71 W14G21    30.03S
ANN ARBOR      PTSUNNY   60  53  77 W12G21    30.05S
BAD AXE        CLOUDY    57  55  91 SW9       29.98S
CARO           CLOUDY    58  53  81 SW13G18   30.00R
DETROIT CITY   MOSUNNY   62  52  69 W9        30.03S
DETROIT        PTSUNNY   63  52  67 W14       30.05S
FLINT          PTSUNNY   60  51  72 W16G23    30.03S
GROSSE ILE     SUNNY     62  52  70 NW8       30.04S
HILLSDALE      PTSUNNY   61  50  67 W16       30.08R
HOWELL         PTSUNNY   60  50  71 W12       30.05R

CITY           SKY/WX    TMP DP  RH WIND       PRES   REMARKS
JACKSON        MOSUNNY   60  50  69 W12       30.06F
LAMBERTVILLE   CLOUDY    62  53  73 W9        30.07S
LANSING        MOSUNNY   62  48  60 W16       30.06R
LAPEER         CLOUDY    58  51  76 W8        30.02S
MASON          MOSUNNY   60  51  72 W13G20    30.06S
MONROE         PTSUNNY   62  53  72 W10       30.06S
MT. CLEMENS    PTSUNNY   60  53  75 W14       30.01R
PONTIAC        MOSUNNY   59  52  77 W15       30.02S
PORT HOPE        N/A     59  55  87 VRB7      29.95S
PORT HURON     PTSUNNY   61  50  67 W5        30.01S
TRI CITIES     MOSUNNY   60  53  77 W16G22    30.01R
MIDLAND        CLOUDY    59  49  68 W12G17    29.99S
TROY           PTSUNNY   61  51  68 W13G18    30.05S
SAGINAW HB     MOSUNNY   59  46  63 W15G23    30.00S
$$
MIZ043>046-050>051-056>058-064>065-071>073-077>080-261400-
SOUTHWEST LOWER MICHIGAN

CITY           SKY/WX    TMP DP  RH WIND       PRES   REMARKS
BATTLE CREEK   MOSUNNY   62  52  69 W10       30.08S
BENTON HARBOR  MOSUNNY   64  48  56 W16G23    30.10R
BIG RAPIDS     MOSUNNY   57  46  67 W9        30.01S
COLDWATER      MOSUNNY   61  52  70 W9        30.09S
FREMONT        FAIR      58  51  78 W8        30.03F
HOLLAND        SUNNY     62  49  62 W15       30.08R
GRAND RAPIDS   PTSUNNY   59  53  80 SW10      30.05S
IONIA          FAIR      60  48  65 W14       30.04S
KALAMAZOO      MOSUNNY   62  47  57 W12       30.08S
LUDINGTON      CLOUDY    58  51  77 W10       30.02S
MARSHALL       MOSUNNY   62  50  66 W10       30.07S
MOUNT PLEASANT MOSUNNY   58  48  68 W14       30.01R
MUSKEGON       PTSUNNY   62  53  72 W9G18     30.06R
SOUTH HAVEN    SUNNY     64  49  58 W15       30.09S
$$
MIZ016>042-261400-
NORTHERN LOWER MICHIGAN

CITY           SKY/WX    TMP DP  RH WIND       PRES   REMARKS
ALPENA         LGT RAIN  58  56  93 SW7       29.94S
BEAVER ISLAND  DRIZZLE   54  53  96 CALM      29.94S
BELLAIRE       RAIN      56  54  93 CALM      29.95S
CADILLAC       MOSUNNY   55  48  75 W12G20    29.98S
CHARLEVOIX     CLOUDY    56  56 100 NW5       29.96S
FRANKFORT      PTSUNNY   57  47  69 W12       29.99S
GAYLORD        LGT RAIN  54  50  86 W6        29.94R FOG
GRAYLING       CLOUDY    55  49  82 SW10G18   29.96S
HARBOR SPRINGS RAIN      55  55 100 CALM      29.93S
HOUGHTON LAKE  CLOUDY    54  48  80 W15       29.98R
MANISTEE       PTSUNNY   56  48  74 W17       30.01R
OSCODA         CLOUDY    59  56  91 SW9       29.94F
PELLSTON       LGT RAIN  54  51  90 CALM      29.93S FOG
ROGERS CITY    CLOUDY    60  54  81 W7        29.93F
TRAVERSE CITY  PTSUNNY   57  51  80 W10       29.95S
$$
MIZ007>008-015-261400-
EASTERN UPPER MICHIGAN

CITY           SKY/WX    TMP DP  RH WIND       PRES   REMARKS
KINROSS        RAIN      54  52  94 N5        29.94R FOG
MACKINAC ISLAN LGT RAIN  55  55 100 CALM      29.92F
NEWBERRY       LGT RAIN  48  47  97 NE3       29.94S
S. S. MARIE    CLOUDY    55  52  89 E6        29.93S
MUNISING         N/A     49  48  97 N8        29.95S
$$
MIZ004>006-011>014-085-261400-
CENTRAL UPPER MICHIGAN

CITY           SKY/WX    TMP DP  RH WIND       PRES   REMARKS
MANISTIQUE     CLOUDY    52  49  89 NW5       29.95S
ESCANABA       CLOUDY    53  51  93 NW6       29.97R
MENOMINEE      CLOUDY    52  46  80 NW10G16   30.00S
SAWYER-GWINN   CLOUDY    48  46  93 N8        29.97S FOG
$$
MIZ001>003-009>011-084-261400-
WESTERN UPPER MICHIGAN

CITY           SKY/WX    TMP DP  RH WIND       PRES   REMARKS
IRON MOUNTAIN  CLOUDY    50  44  80 NW12      29.98R
HOUGHTON       LGT RAIN  51  47  86 N10       30.00R
COPPER HARBOR    N/A     49  47  93 N8        30.00R
IRONWOOD       RAIN      47  46  97 NW12      30.08R
$$

ABBREVIATIONS USED IN REMARKS
   TC - TEMPERATURE IN CELSIUS
  WCI - WIND CHILL INDEX
   HX - HEAT INDEX
  VSB - VISIBILITY





USA.gov is the U.S. government's official web portal to all federal, state and local government web resources and services.